Litchfield, IL

9:00 PM CST on December 04, 2016 (GMT -0600)
Litchfield

Weather History for K3LF - August, 2013

Change the Weather History Date:

Friday, August 30, 2013

  Actual Average (KALN) Record (KALN)
Temperature  
Mean Temperature 82 °F -  
Max Temperature 94 °F 84 °F 97 °F (2012)
Min Temperature 69 °F 63 °F 53 °F (2004)
Cooling Degree Days 16    
Growing Degree Days 32 (Base 50)    
Moisture  
Dew Point 73 °F    
Average Humidity 77    
Maximum Humidity 100    
Minimum Humidity 45    
Precipitation  
Precipitation 0.00 in - - ()
Sea Level Pressure  
Sea Level Pressure 29.92 in    
Wind  
Wind Speed 3 mph (SSW)    
Max Wind Speed 8 mph    
Max Gust Speed -    
Visibility 8 miles    
Events      
Averages and records for this station are not official NWS values.
T = Trace of Precipitation, MM = Missing Value Source: NWS Daily Summary

Daily Weather History Graph

Daily Weather History Graph

Search for Another Location

Airport or City:

Trip Planner

Search our weather history database for the weather conditions in past years. The results will help you decide how hot, cold, wet, or windy it might be!

Date:

Astronomy

Aug. 30, 2013 Rise Set
Actual Time 6:25 AM CDT 7:31 PM CDT
Civil Twilight 5:58 AM CDT 7:59 PM CDT
Nautical Twilight 5:25 AM CDT 8:32 PM CDT
Astronomical Twilight 4:51 AM CDT 9:06 PM CDT
Moon 1:05 AM CDT (8/30) 3:46 PM CDT (8/30)
Length of Visible Light 14h 01m
Length of Day
13h 06m
Waning Crescent, 29% of the Moon is Illuminated
Aug 30
Waning Crescent
Sep 5
New
Sep 12
First Quarter
Sep 19
Full
Sep 26
Last Quarter

Hourly Weather History & Observations

Time (CDT) Temp. Heat Index Dew Point Humidity Pressure Visibility Wind Dir Wind Speed Gust Speed Precip Events Conditions
12:15 AM 76.1 °F - 73.4 °F 91% 29.99 in 7.0 mi ESE 3.5 mph - N/A   Clear
12:35 AM 76.1 °F - 73.4 °F 91% 29.99 in 7.0 mi ESE 3.5 mph - N/A   Clear
12:55 AM 75.0 °F - 73.0 °F 94% 29.99 in 7.0 mi SSE 3.5 mph - N/A   Clear
1:15 AM 73.9 °F - 72.9 °F 96% 29.99 in 5.0 mi Calm Calm - N/A   Clear
1:35 AM 73.8 °F - 72.7 °F 96% 29.99 in 5.0 mi ESE 3.5 mph - N/A   Clear
1:55 AM 74.3 °F - 72.9 °F 95% 29.98 in 5.0 mi Calm Calm - N/A   Clear
2:15 AM 73.9 °F - 72.7 °F 96% 29.98 in 5.0 mi Calm Calm - N/A   Clear
2:35 AM 73.6 °F - 72.5 °F 96% 29.98 in 5.0 mi SE 3.5 mph - N/A   Clear
2:55 AM 73.4 °F - 72.3 °F 96% 29.98 in 5.0 mi Calm Calm - N/A   Clear
3:15 AM 73.4 °F - 72.1 °F 96% 29.98 in 5.0 mi Calm Calm - N/A   Clear
3:35 AM 72.7 °F - 72.0 °F 98% 29.97 in 4.0 mi Calm Calm - N/A   Clear
3:55 AM 72.5 °F - 71.8 °F 98% 29.98 in 4.0 mi Calm Calm - N/A   Clear
4:15 AM 72.7 °F - 72.0 °F 98% 29.97 in 4.0 mi Calm Calm - N/A   Clear
4:35 AM 72.9 °F - 72.1 °F 98% 29.97 in 4.0 mi Calm Calm - N/A   Clear
4:55 AM 72.7 °F - 72.1 °F 98% 29.97 in 4.0 mi Calm Calm - N/A   Clear
5:15 AM 72.1 °F - 71.6 °F 98% 29.96 in 3.0 mi Calm Calm - N/A   Clear
5:35 AM 70.9 °F - 70.7 °F 99% 29.96 in 2.5 mi Calm Calm - N/A   Clear
5:55 AM 70.7 °F - 70.3 °F 99% 29.97 in 1.5 mi Calm Calm - N/A   Mist
6:15 AM 69.8 °F - 69.8 °F 100% 29.97 in 2.0 mi Calm Calm - N/A   Clear
6:35 AM 70.9 °F - 70.9 °F 100% 29.97 in 1.0 mi Calm Calm - N/A   Mist
6:55 AM 71.6 °F - 71.6 °F 100% 29.98 in 0.8 mi Calm Calm - N/A   Mist
7:15 AM 72.3 °F - 72.3 °F 100% 29.97 in 0.8 mi Calm Calm - N/A   Mist
7:35 AM 73.0 °F - 73.0 °F 100% 29.98 in 1.5 mi Calm Calm - N/A   Mist
7:55 AM 74.1 °F - 73.8 °F 99% 29.98 in 2.0 mi Calm Calm - N/A   Clear
8:55 AM 80.6 °F 86.4 °F 75.6 °F 85% 29.97 in 10.0 mi SW 3.5 mph - N/A   Scattered Clouds
9:15 AM 81.9 °F 89.2 °F 76.1 °F 83% 29.97 in 10.0 mi Calm Calm - N/A   Scattered Clouds
9:35 AM 83.1 °F 91.0 °F 75.6 °F 78% 29.97 in 10.0 mi SW 3.5 mph - N/A   Clear
9:55 AM 85.3 °F 94.6 °F 75.9 °F 73% 29.97 in 10.0 mi SW 4.6 mph - N/A   Clear
10:15 AM 86.4 °F 96.0 °F 75.7 °F 70% 29.96 in 10.0 mi WSW 4.6 mph - N/A   Clear
10:35 AM 87.3 °F 98.2 °F 76.5 °F 70% 29.96 in 10.0 mi SW 6.9 mph - N/A   Clear
10:55 AM 88.2 °F 99.5 °F 76.3 °F 68% 29.96 in 10.0 mi SW 4.6 mph - N/A   Clear
11:15 AM 89.2 °F 100.7 °F 75.9 °F 65% 29.95 in 10.0 mi SW 5.8 mph - N/A   Clear
11:35 AM 89.8 °F 100.9 °F 75.6 °F 63% 29.95 in 10.0 mi WSW 5.8 mph - N/A   Clear
11:55 AM 90.1 °F 100.6 °F 74.8 °F 61% 29.94 in 10.0 mi WSW 6.9 mph - N/A   Clear
12:15 PM 90.9 °F 101.8 °F 75.4 °F 60% 29.94 in 10.0 mi WSW 8.1 mph - N/A   Clear
12:35 PM 91.9 °F 102.6 °F 74.5 °F 57% 29.94 in 10.0 mi WSW 5.8 mph - N/A   Clear
12:55 PM 92.3 °F 102.8 °F 74.3 °F 56% 29.93 in 10.0 mi SW 6.9 mph - N/A   Clear
1:15 PM 92.7 °F 102.4 °F 73.9 °F 54% 29.92 in 10.0 mi SW 5.8 mph - N/A   Clear
1:35 PM 93.6 °F 102.5 °F 73.2 °F 51% 29.92 in 10.0 mi WSW 6.9 mph - N/A   Clear
1:55 PM 93.4 °F 102.1 °F 72.7 °F 51% 29.92 in 10.0 mi WSW 6.9 mph - N/A   Clear
2:15 PM 93.9 °F 101.5 °F 71.4 °F 48% 29.91 in 10.0 mi WSW 5.8 mph - N/A   Clear
2:35 PM 93.9 °F 101.5 °F 71.2 °F 48% 29.90 in 10.0 mi Calm Calm - N/A   Clear
2:55 PM 94.3 °F 100.4 °F 70.2 °F 45% 29.90 in 10.0 mi SW 4.6 mph - N/A   Clear
3:15 PM 94.5 °F 102.0 °F 71.6 °F 47% 29.89 in 10.0 mi SW 4.6 mph - N/A   Clear
3:35 PM 94.3 °F 102.2 °F 71.8 °F 48% 29.89 in 10.0 mi WSW 6.9 mph - N/A   Clear
3:55 PM 94.3 °F 102.2 °F 72.0 °F 48% 29.88 in 10.0 mi SW 5.8 mph - N/A   Clear
4:15 PM 94.1 °F 103.1 °F 72.9 °F 50% 29.88 in 10.0 mi SW 5.8 mph - N/A   Clear
4:35 PM 93.9 °F 102.7 °F 72.9 °F 50% 29.87 in 10.0 mi SW 6.9 mph - N/A   Clear
4:55 PM 93.6 °F 102.5 °F 73.0 °F 51% 29.87 in 10.0 mi WSW 3.5 mph - N/A   Clear
5:15 PM 93.6 °F 101.9 °F 72.5 °F 50% 29.86 in 10.0 mi WSW 4.6 mph - N/A   Clear
5:35 PM 93.0 °F 101.9 °F 72.9 °F 52% 29.86 in 10.0 mi SW 3.5 mph - N/A   Clear
5:55 PM 91.9 °F 101.3 °F 73.9 °F 55% 29.86 in 10.0 mi SW 4.6 mph - N/A   Clear
6:15 PM 91.2 °F 102.7 °F 75.4 °F 60% 29.85 in 10.0 mi Calm Calm - N/A   Clear
6:35 PM 89.4 °F 101.1 °F 76.3 °F 65% 29.85 in 10.0 mi Calm Calm - N/A   Clear
6:55 PM 87.4 °F 97.7 °F 75.6 °F 68% 29.85 in 10.0 mi Calm Calm - N/A   Clear
7:15 PM 84.7 °F 94.4 °F 76.5 °F 76% 29.85 in 10.0 mi South 3.5 mph - N/A   Clear
7:35 PM 84.4 °F 92.4 °F 74.8 °F 73% 29.85 in 10.0 mi South 5.8 mph - N/A   Clear
7:55 PM 82.2 °F 88.8 °F 74.8 °F 78% 29.86 in 10.0 mi South 3.5 mph - N/A   Clear
8:15 PM 81.5 °F 87.4 °F 74.5 °F 79% 29.86 in 10.0 mi South 4.6 mph - N/A   Scattered Clouds
8:35 PM 81.0 °F 86.0 °F 73.6 °F 78% 29.86 in 10.0 mi South 4.6 mph - N/A   Clear
8:55 PM 79.9 °F - 73.2 °F 80% 29.87 in 10.0 mi SSE 4.6 mph - N/A   Clear
9:15 PM 79.9 °F - 72.7 °F 79% 29.86 in 10.0 mi SSE 3.5 mph - N/A   Scattered Clouds
9:35 PM 78.3 °F - 72.1 °F 81% 29.86 in 10.0 mi SSE 4.6 mph - N/A   Scattered Clouds
9:55 PM 77.9 °F - 71.8 °F 81% 29.85 in 10.0 mi SSE 3.5 mph - N/A   Clear
10:15 PM 77.0 °F - 71.8 °F 84% 29.85 in 10.0 mi South 3.5 mph - N/A   Scattered Clouds
10:35 PM 76.3 °F - 71.8 °F 86% 29.86 in 10.0 mi South 3.5 mph - N/A   Scattered Clouds
10:55 PM 76.1 °F - 71.8 °F 86% 29.85 in 10.0 mi South 4.6 mph - N/A   Scattered Clouds
11:15 PM 75.6 °F - 71.8 °F 88% 29.86 in 10.0 mi SSE 4.6 mph - N/A   Scattered Clouds
11:35 PM 76.3 °F - 72.0 °F 86% 29.85 in 10.0 mi South 3.5 mph - N/A   Scattered Clouds
11:55 PM 75.4 °F - 72.0 °F 89% 29.85 in 10.0 mi South 3.5 mph - N/A   Scattered Clouds